Weather observations for the past three days for
Webster City Municipal Airport
Imperial (Metric)
Date Time (cdt) Wind (mph) Vis. (mi.) Weather Sky Cond. Temperature (ºF) Relative Humidity Wind Chill (°F) Heat Index (°F) Pressure Precipitation (in)
Air Dwpt 6 hour altimeter (in) sea level (mb) 1 hr 3 hr 6 hr
Max. Min.
14 03:15 W 9 10.00 Fair CLR 60.8 57.2 88% 30.01 0.0
14 02:50 W 6 10.00 Fair CLR 59 57.2 94% 30.01 0.0
14 02:30 W 6 10.00 Fair CLR 60.8 57.2 88% 30 0.0
14 02:10 W 5 10.00 Fair CLR 60.8 57.2 88% 30.01 0.0
14 01:50 W 6 10.00 Fair CLR 60.8 57.2 88% 30 0.0
14 01:30 SW 6 10.00 Fair CLR 60.8 57.2 88% 30 0.0
14 01:10 SW 6 10.00 Fair CLR 60.8 57.2 88% 30 0.0
14 00:50 SW 5 10.00 Fair CLR 62.6 57.2 83% 29.99 0.0
14 00:35 S 3 10.00 Fair CLR 62.6 55.4 77% 29.99 0.0
14 00:15 Calm 10.00 Fair CLR 64.4 55.4 73% 29.98 0.0
13 23:55 Calm 10.00 Fair CLR 64.4 55.4 73% 29.97 0.0
13 23:30 NE 3 10.00 Fair CLR 66.2 55.4 68% 29.96 0.0
13 23:10 NE 5 10.00 Fair CLR 68 53.6 60% 29.95 0.0
13 22:50 N 5 10.00 Fair CLR 68 55.4 64% 29.95 0.0
13 22:30 N 6 10.00 Fair CLR 69.8 55.4 60% 29.94 0.0
13 22:10 N 7 10.00 Fair CLR 71.6 53.6 53% 29.93 0.0
13 21:55 N 7 10.00 Fair CLR 71.6 55.4 57% 29.93 0.0
13 21:35 N 8 10.00 Fair CLR 73.4 55.4 53% 29.91 0.0
13 21:15 N 8 10.00 Fair CLR 75.2 55.4 50% 78 29.9 0.0
13 20:55 N 10 10.00 Fair CLR 78.8 55.4 45% 79 29.89 0.0
13 20:30 N 8 10.00 Fair CLR 80.6 57.2 45% 81 29.89 0.0
13 20:10 N 12 10.00 Fair CLR 82.4 59 45% 82 29.88 0.0
13 19:50 NW 15 10.00 Fair CLR 84.2 57.2 40% 83 29.88 0.0
13 19:30 NW 10 10.00 Fair CLR 86 57.2 38% 85 29.88 0.0
13 19:10 N 13 10.00 Fair CLR 86 57.2 38% 85 29.88 0.0
13 18:50 NW 13 10.00 Fair CLR 87.8 55.4 33% 86 29.88 0.0
13 18:35 W 7 10.00 Fair CLR 87.8 53.6 31% 86 29.88 0.0
13 18:15 W 7 10.00 Fair CLR 87.8 51.8 29% 85 29.88 0.0
13 17:55 SW 7 10.00 A Few Clouds FEW095 87.8 53.6 31% 86 29.89 0.0
13 17:30 SW 6 10.00 Partly Cloudy FEW095 SCT120 87.8 51.8 29% 85 29.89 0.0
13 17:10 W 5 10.00 Mostly Cloudy SCT090 BKN110 87.8 51.8 29% 85 29.9 0.0
13 16:50 W 6 10.00 Partly Cloudy SCT090 87.8 51.8 29% 85 29.9 0.0
13 16:30 NW 8 10.00 Fair CLR 87.8 51.8 29% 85 29.9 0.0
13 16:15 NW 6 10.00 Fair CLR 87.8 53.6 31% 86 29.9 0.0
13 16:00 Calm 10.00 Fair CLR 86 53.6 33% 84 29.89 0.0
13 15:35 NE 7 10.00 Fair CLR 86 53.6 33% 84 29.89 0.0
13 15:15 N 8 10.00 Fair CLR 86 55.4 35% 85 29.89 0.0
13 14:50 NE 10 G 20 10.00 Fair CLR 86 55.4 35% 85 29.9 0.0
13 14:30 NE 10 G 18 10.00 Fair CLR 84.2 55.4 37% 83 29.89 0.0
13 14:10 N 14 G 22 10.00 Fair CLR 84.2 55.4 37% 83 29.89 0.0
13 13:50 N 21 G 29 10.00 Fair and Breezy CLR 84.2 53.6 35% 83 29.89 0.0
13 13:30 N 20 G 25 10.00 Fair CLR 84.2 53.6 35% 83 29.89 0.0
13 13:15 NE 18 G 26 10.00 Fair CLR 84.2 55.4 37% 83 29.89 0.0
13 12:55 N 18 G 25 10.00 Fair CLR 84.2 55.4 37% 83 29.9 0.0
13 12:35 N 21 G 33 10.00 Fair and Breezy CLR 82.4 55.4 40% 82 29.9 0.0
13 12:10 N 21 G 29 10.00 Fair and Breezy CLR 84.2 53.6 35% 83 29.89 0.0
13 11:50 NE 18 G 29 10.00 Fair CLR 82.4 53.6 37% 81 29.89 0.0
13 11:30 N 31 10.00 Fair and Windy CLR 82.4 53.6 37% 81 29.9 0.0
13 11:15 N 26 G 33 10.00 Fair and Windy CLR 82.4 53.6 37% 81 29.89 0.0
13 10:50 N 28 G 33 10.00 Fair and Windy CLR 86 53.6 33% 84 29.86 0.0
13 10:35 N 21 G 28 10.00 Fair and Breezy CLR 86 53.6 33% 84 29.85 0.0
13 10:10 NE 12 G 17 10.00 Fair CLR 84.2 62.6 48% 85 29.83 0.0
13 09:50 NE 10 G 17 10.00 Fair CLR 80.6 66.2 62% 83 29.82 0.0
13 09:30 N 14 10.00 Fair CLR 80.6 68 66% 83 29.83 0.0
13 09:10 N 13 10.00 Fair CLR 78.8 69.8 74% 81 29.82 0.0
13 08:50 NW 6 10.00 Fair CLR 77 69.8 79% 79 29.82 0.0
13 08:35 Vrbl 8 10.00 Fair CLR 77 69.8 79% 79 29.81 0.0
13 08:15 Calm 10.00 Fair CLR 75.2 68 78% 76 29.79 0.0
13 07:55 SW 5 10.00 Fair CLR 73.4 68 83% 29.78 0.0
13 07:35 S 7 10.00 Fair CLR 73.4 68 83% 29.78 0.0
13 07:10 Calm 10.00 Fair CLR 69.8 66.2 88% 29.78 0.0
13 06:50 Calm 10.00 Fair CLR 66.2 66.2 100% 29.78 0.0
13 06:30 Calm 10.00 Fair CLR 64.4 64.4 100% 29.76 0.0
13 06:10 Calm 10.00 Fair CLR 64.4 64.4 100% 29.76 0.0
13 05:55 S 7 10.00 Fair CLR 62.6 62.6 100% 29.75 0.0
13 05:35 S 5 10.00 Fair CLR 62.6 62.6 100% 29.74 0.0
13 05:15 S 5 10.00 Fair CLR 64.4 64.4 100% 29.73 0.0
13 04:55 S 8 10.00 Fair CLR 64.4 64.4 100% 29.73 0.0
13 04:35 S 7 10.00 Fair CLR 66.2 64.4 94% 29.72 0.0
13 04:15 SE 8 10.00 Fair CLR 66.2 64.4 94% 29.71 0.0
13 03:55 SE 8 10.00 Fair CLR 66.2 64.4 94% 29.72 0.0
13 03:30 S 7 10.00 Fair CLR 68 64.4 88% 29.73 0.0
13 03:10 S 7 10.00 Fair CLR 68 64.4 88% 29.74 0.0
13 02:50 S 8 10.00 Fair CLR 68 64.4 88% 29.73 0.0
13 02:35 S 6 10.00 Fair CLR 69.8 64.4 83% 29.74 0.0
13 02:15 S 8 10.00 Fair CLR 69.8 64.4 83% 29.73 0.0
13 01:55 S 7 10.00 Fair CLR 69.8 64.4 83% 29.73 0.0
13 01:35 S 8 10.00 Fair CLR 71.6 64.4 78% 29.73 0.0
13 01:15 S 6 10.00 Fair CLR 71.6 62.6 73% 29.73 0.0
13 00:55 S 6 10.00 Fair CLR 73.4 62.6 69% 29.73 0.0
13 00:35 S 8 10.00 Partly Cloudy SCT075 73.4 62.6 69% 29.74 0.0
13 00:15 S 6 10.00 Overcast OVC075 75.2 62.6 65% 77 29.74 0.0
12 23:50 S 7 10.00 A Few Clouds FEW075 75.2 62.6 65% 77 29.75 0.0
12 23:30 S 12 10.00 Fair CLR 77 62.6 61% 79 29.74 0.0
12 23:10 S 10 10.00 Fair CLR 77 62.6 61% 79 29.74 0.0
12 22:50 S 12 10.00 A Few Clouds FEW085 77 62.6 61% 79 29.74 0.0
12 22:35 S 12 10.00 Partly Cloudy SCT085 77 62.6 61% 79 29.74 0.0
12 22:15 S 9 10.00 A Few Clouds FEW090 77 64.4 65% 79 29.75 0.0
12 21:55 S 8 10.00 A Few Clouds FEW090 77 64.4 65% 79 29.74 0.0
12 21:35 S 9 10.00 Fair CLR 78.8 62.6 58% 80 29.74 0.0
12 21:15 S 12 10.00 A Few Clouds FEW043 FEW050 FEW065 80.6 60.8 51% 81 29.74 0.0
12 20:55 S 15 G 21 10.00 Fair CLR 82.4 60.8 48% 83 29.73 0.0
12 20:30 S 9 10.00 Fair CLR 80.6 60.8 51% 81 29.73 0.0
12 20:15 S 10 10.00 Fair CLR 82.4 60.8 48% 83 29.73 0.0
12 19:55 S 14 10.00 Fair CLR 84.2 60.8 45% 84 29.74 0.0
12 19:35 S 14 10.00 Fair CLR 86 60.8 43% 86 29.75 0.0
12 19:15 S 15 G 21 10.00 Fair CLR 86 60.8 43% 86 29.76 0.0
12 18:55 S 15 10.00 Fair CLR 87.8 60.8 40% 88 29.76 0.0
12 18:35 S 15 10.00 Fair CLR 87.8 60.8 40% 88 29.77 0.0
12 18:10 S 17 10.00 Fair CLR 87.8 60.8 40% 88 29.78 0.0
12 17:55 S 17 10.00 Fair CLR 87.8 59 38% 87 29.78 0.0
12 17:35 S 14 G 21 10.00 Fair CLR 87.8 62.6 43% 88 29.79 0.0
12 17:15 S 13 10.00 Fair CLR 87.8 62.6 43% 88 29.79 0.0
12 16:55 S 10 10.00 Fair CLR 86 60.8 43% 86 29.82 0.0
12 16:35 SW 17 G 23 10.00 Fair CLR 86 60.8 43% 86 29.82 0.0
12 16:15 S 14 10.00 Fair CLR 84.2 62.6 48% 85 29.82 0.0
12 15:50 S 13 10.00 Fair CLR 82.4 64.4 55% 84 29.82 0.0
12 15:30 S 10 10.00 Partly Cloudy FEW060 FEW075 SCT120 78.8 64.4 61% 81 29.82 0.0
12 15:15 SW 16 7.00 Light Drizzle FEW037 SCT060 BKN085 78.8 64.4 61% 81 29.82 0.0
12 14:55 SW 13 9.00 Light Drizzle FEW047 FEW060 FEW075 84.2 60.8 45% 84 29.84 0.0
12 14:35 S 18 G 26 10.00 Fair CLR 86 57.2 38% 85 29.8 0.0
12 14:15 SW 17 G 24 10.00 Fair CLR 86 57.2 38% 85 29.8 0.0
12 13:55 SW 18 G 28 10.00 Fair CLR 86 55.4 35% 85 29.8 0.0
12 13:30 SW 22 G 30 10.00 Fair and Breezy CLR 86 55.4 35% 85 29.81 0.0
12 13:10 SW 23 G 32 10.00 Fair and Breezy CLR 86 55.4 35% 85 29.82 0.0
12 12:50 SW 23 G 33 10.00 A Few Clouds and Breezy FEW110 87.8 57.2 35% 87 29.82 0.0
12 12:30 SW 25 G 35 10.00 Fair and Breezy CLR 87.8 57.2 35% 87 29.81 0.0
12 12:10 S 25 G 37 10.00 Fair and Breezy CLR 89.6 57.2 33% 88 29.8 0.0
12 11:50 SW 24 G 33 10.00 Fair and Breezy CLR 89.6 59 36% 89 29.8 0.0
12 11:30 S 26 G 37 10.00 Fair and Windy CLR 89.6 59 36% 89 29.81 0.0
12 11:15 SW 21 G 31 10.00 Fair and Breezy CLR 89.6 59 36% 89 29.82 0.0
12 10:55 SW 18 G 28 10.00 Fair CLR 87.8 60.8 40% 88 29.82 0.0
12 10:35 SW 18 G 25 10.00 Fair CLR 86 60.8 43% 86 29.82 0.0
12 10:15 SW 21 G 26 10.00 Fair and Breezy CLR 84.2 60.8 45% 84 29.83 0.0
12 09:50 SW 15 G 21 10.00 Fair CLR 84.2 59 43% 84 29.84 0.0
12 09:35 SW 14 G 20 10.00 Fair CLR 82.4 60.8 48% 83 29.85 0.0
12 09:15 SW 14 10.00 Fair CLR 80.6 60.8 51% 81 29.85 0.0
12 08:55 SW 12 G 18 10.00 Fair CLR 78.8 60.8 54% 80 29.85 0.0
12 08:35 SW 12 10.00 Fair CLR 77 60.8 57% 79 29.85 0.0
12 08:15 S 12 10.00 Fair CLR 75.2 60.8 61% 77 29.85 0.0
12 07:55 S 10 10.00 Fair CLR 73.4 59 61% 29.86 0.0
12 07:35 S 7 10.00 Fair CLR 71.6 59 65% 29.86 0.0
12 07:15 S 8 10.00 Fair CLR 69.8 59 69% 29.86 0.0
12 06:50 S 7 10.00 Fair CLR 68 57.2 69% 29.86 0.0
12 06:35 S 8 10.00 Fair CLR 66.2 55.4 68% 29.87 0.0
12 06:15 S 9 10.00 Fair CLR 62.6 55.4 77% 29.87 0.0
12 05:55 S 7 10.00 Fair CLR 62.6 53.6 73% 29.87 0.0
12 05:35 SE 8 10.00 Fair CLR 62.6 53.6 73% 29.87 0.0
12 05:15 S 8 0.00 A Few Clouds FEW120 62.6 55.4 77% 29.88 0.0
12 04:55 SW 10 10.00 Partly Cloudy SCT120 62.6 55.4 77% 29.88 0.0
12 04:35 S 7 10.00 Mostly Cloudy BKN120 60.8 55.4 83% 29.89 0.0
12 04:15 SW 7 10.00 Partly Cloudy SCT110 62.6 55.4 77% 29.88 0.0
12 03:55 SW 8 10.00 A Few Clouds FEW120 62.6 55.4 77% 29.88 0.0
12 03:35 SW 8 10.00 Partly Cloudy SCT120 60.8 55.4 83% 29.88 0.0
12 03:15 SW 9 10.00 Fair CLR 60.8 55.4 83% 29.88 0.0
12 02:55 SW 9 10.00 Fair CLR 62.6 55.4 77% 29.87 0.0
12 02:30 SW 9 10.00 Fair CLR 62.6 55.4 77% 29.87 0.0
12 02:15 SW 10 10.00 Fair CLR 62.6 55.4 77% 29.87 0.0
12 01:55 SW 7 10.00 Fair CLR 64.4 53.6 68% 29.87 0.0
12 01:35 SW 5 10.00 Fair CLR 64.4 53.6 68% 29.86 0.0
12 01:15 SW 7 10.00 Fair CLR 62.6 53.6 73% 29.87 0.0
12 00:55 SW 8 10.00 Fair CLR 64.4 53.6 68% 29.86 0.0
12 00:30 SW 5 10.00 Fair CLR 66.2 53.6 64% 29.86 0.0
12 00:15 W 6 10.00 Fair CLR 66.2 51.8 60% 29.86 0.0
11 23:55 W 8 10.00 Fair CLR 68 51.8 56% 29.86 0.0
11 23:35 W 7 10.00 Fair CLR 66.2 51.8 60% 29.86 0.0
11 23:15 W 7 10.00 Fair CLR 66.2 51.8 60% 29.86 0.0
11 22:55 SW 7 10.00 Fair CLR 66.2 51.8 60% 29.86 0.0
11 22:35 W 8 10.00 Fair CLR 68 51.8 56% 29.86 0.0
11 22:15 W 9 10.00 Fair CLR 69.8 51.8 53% 29.86 0.0
11 21:55 W 8 10.00 Fair CLR 73.4 50 44% 29.85 0.0
11 21:35 W 9 10.00 Fair CLR 73.4 50 44% 29.85 0.0
11 21:10 W 8 10.00 Fair CLR 75.2 50 41% 78 29.84 0.0
11 20:35 W 7 10.00 Fair CLR 78.8 51.8 39% 79 29.84 0.0
11 20:15 W 8 10.00 Fair CLR 82.4 51.8 35% 81 29.84 0.0
11 19:55 NW 10 10.00 Fair CLR 84.2 50 31% 82 29.83 0.0
11 19:35 NW 12 G 18 10.00 Fair CLR 84.2 48.2 29% 82 29.83 0.0
11 19:15 NW 14 G 22 10.00 Fair CLR 86 48.2 27% 83 29.83 0.0
11 18:55 W 13 G 23 10.00 Fair CLR 87.8 48.2 25% 85 29.82 0.0
11 18:35 NW 14 G 22 10.00 A Few Clouds FEW090 87.8 48.2 25% 85 29.82 0.0
11 18:15 NW 20 G 25 10.00 A Few Clouds FEW095 87.8 48.2 25% 85 29.82 0.0
11 17:55 NW 18 10.00 A Few Clouds FEW095 87.8 48.2 25% 85 29.82 0.0
11 17:35 NW 16 G 26 10.00 A Few Clouds FEW095 87.8 46.4 24% 85 29.82 0.0
11 17:15 W 16 G 31 10.00 Partly Cloudy SCT090 SCT110 89.6 48.2 24% 86 29.82 0.0
11 16:55 NW 15 G 23 10.00 Fair CLR 87.8 50 27% 85 29.82 0.0
11 16:35 NW 16 G 22 10.00 Fair CLR 86 51.8 31% 84 29.82 0.0
11 16:15 NW 18 10.00 A Few Clouds FEW085 86 51.8 31% 84 29.83 0.0
11 15:55 W 16 G 28 10.00 Partly Cloudy SCT080 87.8 50 27% 85 29.83 0.0
11 15:35 NW 20 G 25 10.00 A Few Clouds FEW080 87.8 51.8 29% 85 29.83 0.0
11 15:15 NW 16 G 25 10.00 Fair CLR 87.8 51.8 29% 85 29.84 0.0
11 14:55 W 16 G 24 10.00 Fair CLR 87.8 53.6 31% 86 29.84 0.0
11 14:35 NW 16 G 24 10.00 Fair CLR 86 53.6 33% 84 29.85 0.0
11 14:15 NW 20 G 25 10.00 A Few Clouds FEW065 86 53.6 33% 84 29.85 0.0
11 13:55 W 15 G 29 10.00 A Few Clouds FEW065 86 53.6 33% 84 29.85 0.0
11 13:35 NW 13 G 22 10.00 Fair CLR 86 55.4 35% 85 29.85 0.0
11 13:15 W 16 10.00 Fair CLR 84.2 57.2 40% 83 29.85 0.0
11 12:55 W 13 G 26 10.00 Fair CLR 82.4 57.2 42% 82 29.85 0.0
11 12:35 W 10 G 18 10.00 Fair CLR 80.6 59 48% 81 29.86 0.0
11 12:20 SW 14 10.00 Fair CLR 78.8 59 51% 80 29.86 0.0
11 12:10 SW 10 G 28 10.00 Fair CLR 78.8 59 51% 80 29.87 0.0
11 11:35 SW 16 G 24 10.00 A Few Clouds FEW036 75.2 57.2 54% 78 29.88 0.0
11 11:15 SW 16 G 24 10.00 Fair CLR 73.4 57.2 57% 29.88 0.0
11 10:55 S 18 G 28 10.00 Fair CLR 71.6 55.4 57% 29.88 0.0
11 10:35 S 17 G 25 10.00 A Few Clouds FEW095 71.6 55.4 57% 29.88 0.0
11 10:15 S 13 G 20 10.00 Partly Cloudy FEW100 SCT120 66.2 57.2 73% 29.89 0.0
11 09:55 S 13 10.00 Mostly Cloudy SCT075 SCT100 BKN120 64.4 57.2 78% 29.89 0.0
11 09:35 S 10 10.00 Mostly Cloudy FEW055 BKN075 BKN100 62.6 55.4 77% 29.9 0.0
11 09:15 S 12 9.00 Light Rain FEW040 SCT050 BKN100 62.6 55.4 77% 29.91 0.0
11 08:55 S 9 7.00 Overcast SCT040 BKN075 OVC110 64.4 51.8 64% 29.93 0.0
11 08:35 S 12 10.00 Overcast OVC070 66.2 50 56% 29.92 0.0
11 08:15 S 13 G 18 10.00 Overcast OVC075 64.4 48.2 56% 29.91 0.0
11 07:55 S 14 10.00 Overcast OVC080 64.4 46.4 52% 29.91 0.0
11 07:35 S 13 10.00 Overcast OVC080 62.6 46.4 56% 29.91 0.0
11 07:15 S 12 G 17 10.00 Mostly Cloudy BKN085 BKN110 62.6 46.4 56% 29.91 0.0
11 06:55 S 13 10.00 Partly Cloudy FEW095 SCT120 62.6 44.6 52% 29.91 0.0
11 06:35 S 14 10.00 Fair CLR 60.8 44.6 55% 29.91 0.0
11 06:15 S 9 10.00 Fair CLR 59 44.6 59% 29.92 0.0
11 05:55 SE 10 10.00 Fair CLR 59 44.6 59% 29.91 0.0
11 05:35 SE 10 10.00 Fair CLR 59 44.6 59% 29.91 0.0
11 05:15 S 9 10.00 Fair CLR 59 44.6 59% 29.92 0.0
11 04:55 S 9 10.00 Fair CLR 59 44.6 59% 29.92 0.0
11 04:35 S 9 10.00 Fair CLR 59 44.6 59% 29.92 0.0
11 04:15 S 9 10.00 Fair CLR 59 42.8 55% 29.92 0.0
11 03:55 S 9 10.00 Fair CLR 59 42.8 55% 29.92 0.0
11 03:35 S 9 10.00 Fair CLR 59 42.8 55% 29.93 0.0
Date Time (cdt) Wind (mph) Vis. (mi.) Weather Sky Cond. Air Dwpt Max. Min. Relative Humidity Wind Chill (°F) Heat Index (°F) altimeter (in) sea level (mb) 1 hr 3 hr 6 hr
6 hour
Temperature (ºF) Pressure Precipitation (in)